owner,sensor,date,latitude,longitude,vertical_datum,wind_speed,wind_to_direction,wind_speed_of_gust,qcFlag 
TCOON,ioos:station:TCOON:003:1,2010-03-01T14:00:00Z,26.8015,-97.4706,0.0,3.1,341.0,3.6,'11111222,11111222,11111222' 
TCOON,ioos:station:TCOON:003:1,2010-03-01T15:00:00Z,26.8015,-97.4706,0.0,2.4,300.0,2.8,'11111222,11111222,11111222' 
TCOON,ioos:station:TCOON:003:1,2010-03-01T16:00:00Z,26.8015,-97.4706,0.0,3.1,315.0,3.7,'11111222,11111222,11111222' 
TCOON,ioos:station:TCOON:003:1,2010-03-01T17:00:00Z,26.8015,-97.4706,0.0,2.2,321.0,2.9,'11111222,11111222,11111222' 
TCOON,ioos:station:TCOON:003:1,2010-03-01T18:00:00Z,26.8015,-97.4706,0.0,6.1,318.0,7.7,'11111222,11111222,11111222' 
TCOON,ioos:station:TCOON:003:1,2010-03-01T19:00:00Z,26.8015,-97.4706,0.0,9.1,306.0,11.2,'11111222,11111222,11111222' 
TCOON,ioos:station:TCOON:003:1,2010-03-01T20:00:00Z,26.8015,-97.4706,0.0,8.6,315.0,10.4,'11111222,11111222,11111222' 
TCOON,ioos:station:TCOON:003:1,2010-03-01T21:00:00Z,26.8015,-97.4706,0.0,11.9,324.0,14.2,'11111222,11111222,11111222' 
TCOON,ioos:station:TCOON:003:1,2010-03-01T22:00:00Z,26.8015,-97.4706,0.0,11.6,348.0,13.9,'11111222,11111222,11111222' 
TCOON,ioos:station:TCOON:003:1,2010-03-01T23:00:00Z,26.8015,-97.4706,0.0,11.3,352.0,13.0,'11111222,11111222,11111222' 
TCOON,ioos:station:TCOON:003:1,2010-03-02T00:00:00Z,26.8015,-97.4706,0.0,11.7,337.0,14.1,'11111222,11111222,11111222' 
TCOON,ioos:station:TCOON:003:1,2010-03-02T01:00:00Z,26.8015,-97.4706,0.0,14.6,346.0,17.5,'11111222,11111222,11111222' 
TCOON,ioos:station:TCOON:003:1,2010-03-02T02:00:00Z,26.8015,-97.4706,0.0,17.2,350.0,20.6,'11111222,11111222,11111222' 
TCOON,ioos:station:TCOON:003:1,2010-03-02T03:00:00Z,26.8015,-97.4706,0.0,14.6,351.0,17.3,'11111222,11111222,11111222' 
TCOON,ioos:station:TCOON:003:1,2010-03-02T04:00:00Z,26.8015,-97.4706,0.0,16.5,359.0,20.1,'11111222,11111222,11111222' 
TCOON,ioos:station:TCOON:003:1,2010-03-02T05:00:00Z,26.8015,-97.4706,0.0,12.7,354.0,15.3,'11111222,11111222,11111222' 
TCOON,ioos:station:TCOON:003:1,2010-03-02T06:00:00Z,26.8015,-97.4706,0.0,12.5,359.0,14.3,'11111222,11111222,11111222' 
TCOON,ioos:station:TCOON:003:1,2010-03-02T07:00:00Z,26.8015,-97.4706,0.0,8.3,323.0,9.6,'11111222,11111222,11111222' 
TCOON,ioos:station:TCOON:003:1,2010-03-02T09:00:00Z,26.8015,-97.4706,0.0,10.3,350.0,11.5,'11111222,11111222,11111222' 
TCOON,ioos:station:TCOON:003:1,2010-03-02T11:00:00Z,26.8015,-97.4706,0.0,5.9,305.0,7.1,'11111222,11111222,11111222' 
TCOON,ioos:station:TCOON:003:1,2010-03-02T12:00:00Z,26.8015,-97.4706,0.0,7.1,313.0,8.3,'11111222,11111222,11111222' 
TCOON,ioos:station:TCOON:003:1,2010-03-02T13:00:00Z,26.8015,-97.4706,0.0,5.2,315.0,5.8,'11111222,11111222,11111222' 
TCOON,ioos:station:TCOON:003:1,2010-03-02T14:00:00Z,26.8015,-97.4706,0.0,9.4,336.0,11.3,'11111222,11111222,11111222' 
TCOON,ioos:station:TCOON:003:1,2010-03-02T15:00:00Z,26.8015,-97.4706,0.0,8.3,347.0,9.7,'11111222,11111222,11111222' 
TCOON,ioos:station:TCOON:003:1,2010-03-02T16:00:00Z,26.8015,-97.4706,0.0,8.5,352.0,10.0,'11111222,11111222,11111222' 
TCOON,ioos:station:TCOON:003:1,2010-03-02T17:00:00Z,26.8015,-97.4706,0.0,7.2,353.0,9.0,'11111222,11111222,11111222' 
TCOON,ioos:station:TCOON:003:1,2010-03-02T18:00:00Z,26.8015,-97.4706,0.0,5.3,348.0,7.1,'11111222,11111222,11111222' 
TCOON,ioos:station:TCOON:003:1,2010-03-02T19:00:00Z,26.8015,-97.4706,0.0,6.9,342.0,8.8,'11111222,11111222,11111222' 
TCOON,ioos:station:TCOON:003:1,2010-03-02T20:00:00Z,26.8015,-97.4706,0.0,6.4,325.0,8.7,'11111222,11111222,11111222' 
TCOON,ioos:station:TCOON:003:1,2010-03-02T21:00:00Z,26.8015,-97.4706,0.0,5.3,343.0,7.0,'11111222,11111222,11111222' 
TCOON,ioos:station:TCOON:003:1,2010-03-02T22:00:00Z,26.8015,-97.4706,0.0,5.8,342.0,6.5,'11111222,11111222,11111222' 
TCOON,ioos:station:TCOON:003:1,2010-03-02T23:00:00Z,26.8015,-97.4706,0.0,3.8,345.0,4.3,'11111222,11111222,11111222' 
TCOON,ioos:station:TCOON:003:1,2010-03-03T00:00:00Z,26.8015,-97.4706,0.0,3.6,14.0,4.3,'11111222,11111222,11111222' 
TCOON,ioos:station:TCOON:003:1,2010-03-03T01:00:00Z,26.8015,-97.4706,0.0,4.3,30.0,4.8,'11111222,11111222,11111222' 
TCOON,ioos:station:TCOON:003:1,2010-03-03T02:00:00Z,26.8015,-97.4706,0.0,3.0,72.0,3.2,'11111222,11111222,11111222' 
TCOON,ioos:station:TCOON:003:1,2010-03-03T03:00:00Z,26.8015,-97.4706,0.0,2.0,107.0,2.4,'11111222,11111222,11111222' 
TCOON,ioos:station:TCOON:003:1,2010-03-03T04:00:00Z,26.8015,-97.4706,0.0,2.3,114.0,2.5,'11111222,11111222,11111222' 
TCOON,ioos:station:TCOON:003:1,2010-03-03T05:00:00Z,26.8015,-97.4706,0.0,2.5,208.0,2.7,'11111222,11111222,11111222' 
TCOON,ioos:station:TCOON:003:1,2010-03-03T06:00:00Z,26.8015,-97.4706,0.0,2.2,218.0,2.6,'11111222,11111222,11111222' 
TCOON,ioos:station:TCOON:003:1,2010-03-03T07:00:00Z,26.8015,-97.4706,0.0,3.3,216.0,3.7,'11111222,11111222,11111222' 
TCOON,ioos:station:TCOON:003:1,2010-03-03T08:00:00Z,26.8015,-97.4706,0.0,3.8,234.0,4.5,'11111222,11111222,11111222' 
TCOON,ioos:station:TCOON:003:1,2010-03-03T09:00:00Z,26.8015,-97.4706,0.0,3.0,239.0,3.4,'11111222,11111222,11111222' 
TCOON,ioos:station:TCOON:003:1,2010-03-03T10:00:00Z,26.8015,-97.4706,0.0,3.4,231.0,4.3,'11111222,11111222,11111222' 
TCOON,ioos:station:TCOON:003:1,2010-03-03T11:00:00Z,26.8015,-97.4706,0.0,3.0,239.0,3.7,'11111222,11111222,11111222' 
TCOON,ioos:station:TCOON:003:1,2010-03-03T12:00:00Z,26.8015,-97.4706,0.0,3.2,249.0,4.0,'11111222,11111222,11111222' 
TCOON,ioos:station:TCOON:003:1,2010-03-03T13:00:00Z,26.8015,-97.4706,0.0,4.9,241.0,5.6,'11111222,11111222,11111222' 
TCOON,ioos:station:TCOON:003:1,2010-03-03T14:00:00Z,26.8015,-97.4706,0.0,5.5,230.0,6.2,'11111222,11111222,11111222' 
TCOON,ioos:station:TCOON:003:1,2010-03-03T15:00:00Z,26.8015,-97.4706,0.0,4.3,191.0,4.9,'11111222,11111222,11111222' 
TCOON,ioos:station:TCOON:003:1,2010-03-03T16:00:00Z,26.8015,-97.4706,0.0,5.3,166.0,6.0,'11111222,11111222,11111222' 
TCOON,ioos:station:TCOON:003:1,2010-03-03T17:00:00Z,26.8015,-97.4706,0.0,5.9,160.0,6.7,'11111222,11111222,11111222' 
TCOON,ioos:station:TCOON:003:1,2010-03-03T18:00:00Z,26.8015,-97.4706,0.0,6.0,162.0,6.7,'11111222,11111222,11111222' 
TCOON,ioos:station:TCOON:003:1,2010-03-03T19:00:00Z,26.8015,-97.4706,0.0,4.6,160.0,5.1,'11111222,11111222,11111222' 
TCOON,ioos:station:TCOON:003:1,2010-03-03T20:00:00Z,26.8015,-97.4706,0.0,7.5,136.0,8.6,'11111222,11111222,11111222' 
TCOON,ioos:station:TCOON:003:1,2010-03-03T21:00:00Z,26.8015,-97.4706,0.0,8.8,132.0,10.9,'11111222,11111222,11111222' 
TCOON,ioos:station:TCOON:003:1,2010-03-03T22:00:00Z,26.8015,-97.4706,0.0,8.5,135.0,9.6,'11111222,11111222,11111222' 
TCOON,ioos:station:TCOON:003:1,2010-03-03T23:00:00Z,26.8015,-97.4706,0.0,7.6,138.0,9.1,'11111222,11111222,11111222' 
TCOON,ioos:station:TCOON:003:1,2010-03-04T00:00:00Z,26.8015,-97.4706,0.0,7.5,139.0,8.2,'11111222,11111222,11111222' 
TCOON,ioos:station:TCOON:003:1,2010-03-04T01:00:00Z,26.8015,-97.4706,0.0,5.7,142.0,6.4,'11111222,11111222,11111222' 
TCOON,ioos:station:TCOON:003:1,2010-03-04T02:00:00Z,26.8015,-97.4706,0.0,6.0,147.0,6.9,'11111222,11111222,11111222' 
TCOON,ioos:station:TCOON:003:1,2010-03-04T03:00:00Z,26.8015,-97.4706,0.0,5.2,141.0,5.8,'11111222,11111222,11111222' 
TCOON,ioos:station:TCOON:003:1,2010-03-04T04:00:00Z,26.8015,-97.4706,0.0,4.3,131.0,5.1,'11111222,11111222,11111222' 
TCOON,ioos:station:TCOON:003:1,2010-03-04T05:00:00Z,26.8015,-97.4706,0.0,5.2,142.0,6.0,'11111222,11111222,11111222' 
TCOON,ioos:station:TCOON:003:1,2010-03-04T06:00:00Z,26.8015,-97.4706,0.0,4.6,149.0,5.4,'11111222,11111222,11111222' 
TCOON,ioos:station:TCOON:003:1,2010-03-04T07:00:00Z,26.8015,-97.4706,0.0,4.3,146.0,5.1,'11111222,11111222,11111222' 
TCOON,ioos:station:TCOON:003:1,2010-03-04T08:00:00Z,26.8015,-97.4706,0.0,5.1,145.0,6.2,'11111222,11111222,11111222' 
TCOON,ioos:station:TCOON:003:1,2010-03-04T10:00:00Z,26.8015,-97.4706,0.0,4.5,148.0,5.4,'11111222,11111222,11111222' 
TCOON,ioos:station:TCOON:003:1,2010-03-04T11:00:00Z,26.8015,-97.4706,0.0,4.8,139.0,5.4,'11111222,11111222,11111222' 
TCOON,ioos:station:TCOON:003:1,2010-03-04T12:00:00Z,26.8015,-97.4706,0.0,4.5,136.0,5.1,'11111222,11111222,11111222' 
TCOON,ioos:station:TCOON:003:1,2010-03-04T13:00:00Z,26.8015,-97.4706,0.0,4.4,137.0,5.0,'11111222,11111222,11111222' 
TCOON,ioos:station:TCOON:003:1,2010-03-04T14:00:00Z,26.8015,-97.4706,0.0,5.7,145.0,7.2,'11111222,11111222,11111222' 
TCOON,ioos:station:TCOON:003:1,2010-03-04T15:00:00Z,26.8015,-97.4706,0.0,8.1,140.0,9.3,'11111222,11111222,11111222' 
TCOON,ioos:station:TCOON:003:1,2010-03-04T16:00:00Z,26.8015,-97.4706,0.0,8.1,138.0,9.8,'11111222,11111222,11111222' 
TCOON,ioos:station:TCOON:003:1,2010-03-04T18:00:00Z,26.8015,-97.4706,0.0,8.8,137.0,10.5,'11111222,11111222,11111222' 
TCOON,ioos:station:TCOON:003:1,2010-03-04T19:00:00Z,26.8015,-97.4706,0.0,9.1,136.0,10.5,'11111222,11111222,11111222' 
TCOON,ioos:station:TCOON:003:1,2010-03-04T21:00:00Z,26.8015,-97.4706,0.0,9.7,129.0,11.3,'11111222,11111222,11111222' 
TCOON,ioos:station:TCOON:003:1,2010-03-04T22:00:00Z,26.8015,-97.4706,0.0,9.4,140.0,10.8,'11111222,11111222,11111222' 
TCOON,ioos:station:TCOON:003:1,2010-03-04T23:00:00Z,26.8015,-97.4706,0.0,8.4,135.0,10.2,'11111222,11111222,11111222' 
TCOON,ioos:station:TCOON:003:1,2010-03-05T00:00:00Z,26.8015,-97.4706,0.0,8.6,131.0,10.2,'11111222,11111222,11111222' 
TCOON,ioos:station:TCOON:003:1,2010-03-05T01:00:00Z,26.8015,-97.4706,0.0,7.5,136.0,8.9,'11111222,11111222,11111222' 
TCOON,ioos:station:TCOON:003:1,2010-03-05T04:00:00Z,26.8015,-97.4706,0.0,8.7,139.0,10.0,'11111222,11111222,11111222' 
TCOON,ioos:station:TCOON:003:1,2010-03-05T05:00:00Z,26.8015,-97.4706,0.0,8.7,142.0,10.6,'11111222,11111222,11111222' 
TCOON,ioos:station:TCOON:003:1,2010-03-05T06:00:00Z,26.8015,-97.4706,0.0,8.2,142.0,9.6,'11111222,11111222,11111222' 
TCOON,ioos:station:TCOON:003:1,2010-03-05T07:00:00Z,26.8015,-97.4706,0.0,8.6,142.0,10.2,'11111222,11111222,11111222' 
TCOON,ioos:station:TCOON:003:1,2010-03-05T08:00:00Z,26.8015,-97.4706,0.0,5.8,135.0,6.6,'11111222,11111222,11111222' 
TCOON,ioos:station:TCOON:003:1,2010-03-05T09:00:00Z,26.8015,-97.4706,0.0,6.2,132.0,7.1,'11111222,11111222,11111222' 
TCOON,ioos:station:TCOON:003:1,2010-03-05T10:00:00Z,26.8015,-97.4706,0.0,6.2,132.0,8.1,'11111222,11111222,11111222' 
TCOON,ioos:station:TCOON:003:1,2010-03-05T11:00:00Z,26.8015,-97.4706,0.0,6.4,130.0,7.5,'11111222,11111222,11111222' 
TCOON,ioos:station:TCOON:003:1,2010-03-05T12:00:00Z,26.8015,-97.4706,0.0,6.3,126.0,7.4,'11111222,11111222,11111222' 
TCOON,ioos:station:TCOON:003:1,2010-03-05T13:00:00Z,26.8015,-97.4706,0.0,6.9,129.0,7.7,'11111222,11111222,11111222' 
TCOON,ioos:station:TCOON:003:1,2010-03-05T14:00:00Z,26.8015,-97.4706,0.0,7.5,127.0,8.9,'11111222,11111222,11111222' 
TCOON,ioos:station:TCOON:003:1,2010-03-05T15:00:00Z,26.8015,-97.4706,0.0,8.6,124.0,10.5,'11111222,11111222,11111222' 
TCOON,ioos:station:TCOON:003:1,2010-03-05T16:00:00Z,26.8015,-97.4706,0.0,9.0,128.0,10.6,'11111222,11111222,11111222' 
TCOON,ioos:station:TCOON:003:1,2010-03-05T17:00:00Z,26.8015,-97.4706,0.0,8.0,118.0,9.5,'11111222,11111222,11111222' 
TCOON,ioos:station:TCOON:003:1,2010-03-05T19:00:00Z,26.8015,-97.4706,0.0,7.1,121.0,9.0,'11111222,11111222,11111222' 
TCOON,ioos:station:TCOON:003:1,2010-03-05T20:00:00Z,26.8015,-97.4706,0.0,6.3,119.0,7.7,'11111222,11111222,11111222' 
TCOON,ioos:station:TCOON:003:1,2010-03-05T21:00:00Z,26.8015,-97.4706,0.0,6.2,114.0,7.8,'11111222,11111222,11111222' 
TCOON,ioos:station:TCOON:003:1,2010-03-05T22:00:00Z,26.8015,-97.4706,0.0,6.1,111.0,7.3,'11111222,11111222,11111222' 
TCOON,ioos:station:TCOON:003:1,2010-03-05T23:00:00Z,26.8015,-97.4706,0.0,5.8,119.0,7.1,'11111222,11111222,11111222' 
TCOON,ioos:station:TCOON:003:1,2010-03-06T00:00:00Z,26.8015,-97.4706,0.0,6.0,122.0,7.2,'11111222,11111222,11111222' 
TCOON,ioos:station:TCOON:003:1,2010-03-06T01:00:00Z,26.8015,-97.4706,0.0,7.3,127.0,8.9,'11111222,11111222,11111222' 
TCOON,ioos:station:TCOON:003:1,2010-03-06T02:00:00Z,26.8015,-97.4706,0.0,5.0,116.0,6.4,'11111222,11111222,11111222' 
TCOON,ioos:station:TCOON:003:1,2010-03-06T03:00:00Z,26.8015,-97.4706,0.0,4.7,111.0,5.6,'11111222,11111222,11111222' 
TCOON,ioos:station:TCOON:003:1,2010-03-06T04:00:00Z,26.8015,-97.4706,0.0,5.3,113.0,6.7,'11111222,11111222,11111222' 
TCOON,ioos:station:TCOON:003:1,2010-03-06T05:00:00Z,26.8015,-97.4706,0.0,6.5,117.0,7.8,'11111222,11111222,11111222' 
TCOON,ioos:station:TCOON:003:1,2010-03-06T06:00:00Z,26.8015,-97.4706,0.0,6.4,112.0,7.3,'11111222,11111222,11111222' 
TCOON,ioos:station:TCOON:003:1,2010-03-06T07:00:00Z,26.8015,-97.4706,0.0,6.1,108.0,7.0,'11111222,11111222,11111222' 
TCOON,ioos:station:TCOON:003:1,2010-03-06T08:00:00Z,26.8015,-97.4706,0.0,7.5,112.0,9.0,'11111222,11111222,11111222' 
TCOON,ioos:station:TCOON:003:1,2010-03-06T09:00:00Z,26.8015,-97.4706,0.0,6.8,107.0,8.7,'11111222,11111222,11111222' 
TCOON,ioos:station:TCOON:003:1,2010-03-06T10:00:00Z,26.8015,-97.4706,0.0,6.9,110.0,7.8,'11111222,11111222,11111222' 
TCOON,ioos:station:TCOON:003:1,2010-03-06T11:00:00Z,26.8015,-97.4706,0.0,6.4,116.0,7.7,'11111222,11111222,11111222' 
TCOON,ioos:station:TCOON:003:1,2010-03-06T12:00:00Z,26.8015,-97.4706,0.0,7.3,121.0,8.6,'11111222,11111222,11111222' 
TCOON,ioos:station:TCOON:003:1,2010-03-06T13:00:00Z,26.8015,-97.4706,0.0,7.7,122.0,8.7,'11111222,11111222,11111222' 
TCOON,ioos:station:TCOON:003:1,2010-03-06T14:00:00Z,26.8015,-97.4706,0.0,6.9,121.0,8.1,'11111222,11111222,11111222' 
TCOON,ioos:station:TCOON:003:1,2010-03-06T15:00:00Z,26.8015,-97.4706,0.0,8.1,124.0,9.8,'11111222,11111222,11111222' 
TCOON,ioos:station:TCOON:003:1,2010-03-06T16:00:00Z,26.8015,-97.4706,0.0,8.8,126.0,9.9,'11111222,11111222,11111222' 
TCOON,ioos:station:TCOON:003:1,2010-03-06T17:00:00Z,26.8015,-97.4706,0.0,9.7,131.0,11.5,'11111222,11111222,11111222' 
TCOON,ioos:station:TCOON:003:1,2010-03-06T18:00:00Z,26.8015,-97.4706,0.0,9.5,130.0,11.1,'11111222,11111222,11111222' 
TCOON,ioos:station:TCOON:003:1,2010-03-06T19:00:00Z,26.8015,-97.4706,0.0,9.3,124.0,11.7,'11111222,11111222,11111222' 
TCOON,ioos:station:TCOON:003:1,2010-03-06T20:00:00Z,26.8015,-97.4706,0.0,8.9,113.0,10.9,'11111222,11111222,11111222' 
TCOON,ioos:station:TCOON:003:1,2010-03-06T21:00:00Z,26.8015,-97.4706,0.0,9.5,129.0,11.5,'11111222,11111222,11111222' 
TCOON,ioos:station:TCOON:003:1,2010-03-06T22:00:00Z,26.8015,-97.4706,0.0,8.3,128.0,9.5,'11111222,11111222,11111222' 
TCOON,ioos:station:TCOON:003:1,2010-03-06T23:00:00Z,26.8015,-97.4706,0.0,7.8,133.0,8.6,'11111222,11111222,11111222' 
TCOON,ioos:station:TCOON:003:1,2010-03-07T00:00:00Z,26.8015,-97.4706,0.0,7.3,123.0,9.0,'11111222,11111222,11111222' 
TCOON,ioos:station:TCOON:003:1,2010-03-07T01:00:00Z,26.8015,-97.4706,0.0,7.3,127.0,8.4,'11111222,11111222,11111222' 
TCOON,ioos:station:TCOON:003:1,2010-03-07T02:00:00Z,26.8015,-97.4706,0.0,7.1,126.0,8.1,'11111222,11111222,11111222' 
TCOON,ioos:station:TCOON:003:1,2010-03-07T04:00:00Z,26.8015,-97.4706,0.0,6.2,123.0,7.0,'11111222,11111222,11111222' 
TCOON,ioos:station:TCOON:003:1,2010-03-07T05:00:00Z,26.8015,-97.4706,0.0,6.4,131.0,7.8,'11111222,11111222,11111222' 
TCOON,ioos:station:TCOON:003:1,2010-03-07T06:00:00Z,26.8015,-97.4706,0.0,6.4,135.0,7.6,'11111222,11111222,11111222' 
TCOON,ioos:station:TCOON:003:1,2010-03-07T07:00:00Z,26.8015,-97.4706,0.0,5.7,135.0,6.9,'11111222,11111222,11111222' 
TCOON,ioos:station:TCOON:003:1,2010-03-07T08:00:00Z,26.8015,-97.4706,0.0,6.3,139.0,7.6,'11111222,11111222,11111222' 
TCOON,ioos:station:TCOON:003:1,2010-03-07T09:00:00Z,26.8015,-97.4706,0.0,7.6,148.0,8.9,'11111222,11111222,11111222' 
TCOON,ioos:station:TCOON:003:1,2010-03-07T10:00:00Z,26.8015,-97.4706,0.0,7.6,139.0,9.4,'11111222,11111222,11111222' 
TCOON,ioos:station:TCOON:003:1,2010-03-07T11:00:00Z,26.8015,-97.4706,0.0,6.6,125.0,7.9,'11111222,11111222,11111222' 
TCOON,ioos:station:TCOON:003:1,2010-03-07T12:00:00Z,26.8015,-97.4706,0.0,6.4,127.0,7.4,'11111222,11111222,11111222' 
TCOON,ioos:station:TCOON:003:1,2010-03-07T13:00:00Z,26.8015,-97.4706,0.0,6.6,136.0,7.7,'11111222,11111222,11111222' 
TCOON,ioos:station:TCOON:003:1,2010-03-07T14:00:00Z,26.8015,-97.4706,0.0,7.1,142.0,8.4,'11111222,11111222,11111222' 
TCOON,ioos:station:TCOON:003:1,2010-03-07T15:00:00Z,26.8015,-97.4706,0.0,9.7,138.0,11.5,'11111222,11111222,11111222' 
TCOON,ioos:station:TCOON:003:1,2010-03-07T16:00:00Z,26.8015,-97.4706,0.0,9.2,149.0,11.9,'11111222,11111222,11111222' 
TCOON,ioos:station:TCOON:003:1,2010-03-07T17:00:00Z,26.8015,-97.4706,0.0,11.3,157.0,13.0,'11111222,11111222,11111222' 
TCOON,ioos:station:TCOON:003:1,2010-03-07T18:00:00Z,26.8015,-97.4706,0.0,9.8,150.0,12.8,'11111222,11111222,11111222' 
TCOON,ioos:station:TCOON:003:1,2010-03-07T19:00:00Z,26.8015,-97.4706,0.0,8.9,146.0,10.7,'11111222,11111222,11111222' 
TCOON,ioos:station:TCOON:003:1,2010-03-07T20:00:00Z,26.8015,-97.4706,0.0,7.9,143.0,9.5,'11111222,11111222,11111222' 
TCOON,ioos:station:TCOON:003:1,2010-03-07T21:00:00Z,26.8015,-97.4706,0.0,10.2,139.0,11.8,'11111222,11111222,11111222' 
TCOON,ioos:station:TCOON:003:1,2010-03-07T22:00:00Z,26.8015,-97.4706,0.0,9.4,134.0,11.4,'11111222,11111222,11111222' 
TCOON,ioos:station:TCOON:003:1,2010-03-07T23:00:00Z,26.8015,-97.4706,0.0,9.2,127.0,11.5,'11111222,11111222,11111222' 
TCOON,ioos:station:TCOON:003:1,2010-03-08T00:00:00Z,26.8015,-97.4706,0.0,9.2,126.0,10.6,'11111222,11111222,11111222' 
TCOON,ioos:station:TCOON:003:1,2010-03-08T01:00:00Z,26.8015,-97.4706,0.0,11.0,129.0,13.9,'11111222,11111222,11111222' 
TCOON,ioos:station:TCOON:003:1,2010-03-08T02:00:00Z,26.8015,-97.4706,0.0,10.0,133.0,12.0,'11111222,11111222,11111222' 
TCOON,ioos:station:TCOON:003:1,2010-03-08T03:00:00Z,26.8015,-97.4706,0.0,10.8,138.0,12.5,'11111222,11111222,11111222' 
TCOON,ioos:station:TCOON:003:1,2010-03-08T04:00:00Z,26.8015,-97.4706,0.0,10.4,138.0,12.1,'11111222,11111222,11111222' 
TCOON,ioos:station:TCOON:003:1,2010-03-08T05:00:00Z,26.8015,-97.4706,0.0,10.2,147.0,12.0,'11111222,11111222,11111222' 
TCOON,ioos:station:TCOON:003:1,2010-03-08T06:00:00Z,26.8015,-97.4706,0.0,12.0,147.0,14.1,'11111222,11111222,11111222' 
TCOON,ioos:station:TCOON:003:1,2010-03-08T07:00:00Z,26.8015,-97.4706,0.0,9.3,150.0,11.5,'11111222,11111222,11111222' 
TCOON,ioos:station:TCOON:003:1,2010-03-08T08:00:00Z,26.8015,-97.4706,0.0,10.3,151.0,12.5,'11111222,11111222,11111222' 
TCOON,ioos:station:TCOON:003:1,2010-03-08T09:00:00Z,26.8015,-97.4706,0.0,9.3,147.0,11.8,'11111222,11111222,11111222' 
TCOON,ioos:station:TCOON:003:1,2010-03-08T10:00:00Z,26.8015,-97.4706,0.0,9.7,148.0,12.1,'11111222,11111222,11111222' 
TCOON,ioos:station:TCOON:003:1,2010-03-08T11:00:00Z,26.8015,-97.4706,0.0,8.9,155.0,10.1,'11111222,11111222,11111222' 
TCOON,ioos:station:TCOON:003:1,2010-03-08T12:00:00Z,26.8015,-97.4706,0.0,9.1,154.0,10.8,'11111222,11111222,11111222' 
TCOON,ioos:station:TCOON:003:1,2010-03-08T13:00:00Z,26.8015,-97.4706,0.0,9.3,155.0,10.6,'11111222,11111222,11111222' 
TCOON,ioos:station:TCOON:003:1,2010-03-08T14:00:00Z,26.8015,-97.4706,0.0,11.4,153.0,13.1,'11111222,11111222,11111222' 
TCOON,ioos:station:TCOON:003:1,2010-03-08T15:00:00Z,26.8015,-97.4706,0.0,9.4,151.0,10.7,'11111222,11111222,11111222' 
TCOON,ioos:station:TCOON:003:1,2010-03-08T16:00:00Z,26.8015,-97.4706,0.0,8.7,142.0,10.6,'11111222,11111222,11111222' 
TCOON,ioos:station:TCOON:003:1,2010-03-08T17:00:00Z,26.8015,-97.4706,0.0,10.0,122.0,11.6,'11111222,11111222,11111222' 
TCOON,ioos:station:TCOON:003:1,2010-03-08T18:00:00Z,26.8015,-97.4706,0.0,10.1,132.0,12.4,'11111222,11111222,11111222' 
TCOON,ioos:station:TCOON:003:1,2010-03-08T20:00:00Z,26.8015,-97.4706,0.0,12.2,147.0,14.6,'11111222,11111222,11111222' 
TCOON,ioos:station:TCOON:003:1,2010-03-08T23:00:00Z,26.8015,-97.4706,0.0,12.1,153.0,14.2,'11111222,11111222,11111222' 
TCOON,ioos:station:TCOON:003:1,2010-03-09T00:00:00Z,26.8015,-97.4706,0.0,10.7,155.0,12.7,'11111222,11111222,11111222' 
TCOON,ioos:station:TCOON:003:1,2010-03-09T01:00:00Z,26.8015,-97.4706,0.0,11.8,162.0,13.4,'11111222,11111222,11111222' 
TCOON,ioos:station:TCOON:003:1,2010-03-09T02:00:00Z,26.8015,-97.4706,0.0,9.6,159.0,11.4,'11111222,11111222,11111222' 
TCOON,ioos:station:TCOON:003:1,2010-03-09T03:00:00Z,26.8015,-97.4706,0.0,7.9,172.0,9.6,'11111222,11111222,11111222' 
TCOON,ioos:station:TCOON:003:1,2010-03-09T04:00:00Z,26.8015,-97.4706,0.0,9.4,172.0,11.3,'11111222,11111222,11111222' 
TCOON,ioos:station:TCOON:003:1,2010-03-09T05:00:00Z,26.8015,-97.4706,0.0,6.2,149.0,7.3,'11111222,11111222,11111222' 
TCOON,ioos:station:TCOON:003:1,2010-03-09T06:00:00Z,26.8015,-97.4706,0.0,6.1,148.0,7.1,'11111222,11111222,11111222' 
TCOON,ioos:station:TCOON:003:1,2010-03-09T07:00:00Z,26.8015,-97.4706,0.0,2.0,158.0,2.4,'11111222,11111222,11111222' 
TCOON,ioos:station:TCOON:003:1,2010-03-09T08:00:00Z,26.8015,-97.4706,0.0,2.2,64.0,2.5,'11111222,11111222,11111222' 
TCOON,ioos:station:TCOON:003:1,2010-03-09T09:00:00Z,26.8015,-97.4706,0.0,3.3,99.0,4.0,'11111222,11111222,11111222' 
TCOON,ioos:station:TCOON:003:1,2010-03-09T10:00:00Z,26.8015,-97.4706,0.0,3.4,103.0,4.0,'11111222,11111222,11111222' 
TCOON,ioos:station:TCOON:003:1,2010-03-09T11:00:00Z,26.8015,-97.4706,0.0,2.9,100.0,3.3,'11111222,11111222,11111222' 
TCOON,ioos:station:TCOON:003:1,2010-03-09T12:00:00Z,26.8015,-97.4706,0.0,4.0,124.0,4.8,'11111222,11111222,11111222' 
TCOON,ioos:station:TCOON:003:1,2010-03-09T13:00:00Z,26.8015,-97.4706,0.0,5.3,147.0,6.9,'11111222,11111222,11111222' 
TCOON,ioos:station:TCOON:003:1,2010-03-09T14:00:00Z,26.8015,-97.4706,0.0,6.0,147.0,7.0,'11111222,11111222,11111222' 
TCOON,ioos:station:TCOON:003:1,2010-03-09T15:00:00Z,26.8015,-97.4706,0.0,4.1,141.0,5.1,'11111222,11111222,11111222' 
TCOON,ioos:station:TCOON:003:1,2010-03-09T16:00:00Z,26.8015,-97.4706,0.0,3.0,144.0,3.5,'11111222,11111222,11111222' 
TCOON,ioos:station:TCOON:003:1,2010-03-09T17:00:00Z,26.8015,-97.4706,0.0,3.1,176.0,3.5,'11111222,11111222,11111222' 
TCOON,ioos:station:TCOON:003:1,2010-03-09T18:00:00Z,26.8015,-97.4706,0.0,3.7,159.0,4.4,'11111222,11111222,11111222' 
TCOON,ioos:station:TCOON:003:1,2010-03-09T19:00:00Z,26.8015,-97.4706,0.0,3.6,163.0,3.8,'11111222,11111222,11111222' 
TCOON,ioos:station:TCOON:003:1,2010-03-09T20:00:00Z,26.8015,-97.4706,0.0,5.2,127.0,6.0,'11111222,11111222,11111222' 
TCOON,ioos:station:TCOON:003:1,2010-03-09T21:00:00Z,26.8015,-97.4706,0.0,5.4,117.0,6.3,'11111222,11111222,11111222' 
TCOON,ioos:station:TCOON:003:1,2010-03-09T22:00:00Z,26.8015,-97.4706,0.0,5.2,137.0,6.0,'11111222,11111222,11111222' 
TCOON,ioos:station:TCOON:003:1,2010-03-09T23:00:00Z,26.8015,-97.4706,0.0,6.3,140.0,7.3,'11111222,11111222,11111222' 
TCOON,ioos:station:TCOON:003:1,2010-03-10T00:00:00Z,26.8015,-97.4706,0.0,7.1,134.0,7.9,'11111222,11111222,11111222' 
TCOON,ioos:station:TCOON:003:1,2010-03-10T01:00:00Z,26.8015,-97.4706,0.0,6.3,158.0,7.0,'11111222,11111222,11111222' 
TCOON,ioos:station:TCOON:003:1,2010-03-10T02:00:00Z,26.8015,-97.4706,0.0,5.7,166.0,6.8,'11111222,11111222,11111222' 
TCOON,ioos:station:TCOON:003:1,2010-03-10T03:00:00Z,26.8015,-97.4706,0.0,5.9,172.0,6.9,'11111222,11111222,11111222' 
TCOON,ioos:station:TCOON:003:1,2010-03-10T05:00:00Z,26.8015,-97.4706,0.0,6.4,174.0,7.1,'11111222,11111222,11111222' 
TCOON,ioos:station:TCOON:003:1,2010-03-10T06:00:00Z,26.8015,-97.4706,0.0,8.6,174.0,9.3,'11111222,11111222,11111222' 
TCOON,ioos:station:TCOON:003:1,2010-03-10T08:00:00Z,26.8015,-97.4706,0.0,4.4,204.0,5.1,'11111222,11111222,11111222' 
TCOON,ioos:station:TCOON:003:1,2010-03-10T09:00:00Z,26.8015,-97.4706,0.0,3.0,190.0,3.3,'11111222,11111222,11111222' 
TCOON,ioos:station:TCOON:003:1,2010-03-10T10:00:00Z,26.8015,-97.4706,0.0,3.7,186.0,4.4,'11111222,11111222,11111222' 
TCOON,ioos:station:TCOON:003:1,2010-03-10T11:00:00Z,26.8015,-97.4706,0.0,4.0,158.0,4.6,'11111222,11111222,11111222' 
TCOON,ioos:station:TCOON:003:1,2010-03-10T12:00:00Z,26.8015,-97.4706,0.0,2.9,128.0,3.3,'11111222,11111222,11111222' 
TCOON,ioos:station:TCOON:003:1,2010-03-10T13:00:00Z,26.8015,-97.4706,0.0,3.6,205.0,4.2,'11111222,11111222,11111222' 
TCOON,ioos:station:TCOON:003:1,2010-03-10T14:00:00Z,26.8015,-97.4706,0.0,3.8,194.0,4.5,'11111222,11111222,11111222' 